FW8607 Weather Reports


time (UTC)temp
C
wind
direction
speed
KPH
gust
KPH
rain 1hr
cm
rain 24hr
cm
rain mn
cm
humidity
%
barometer
mb
20260906160018 25 293 6.4 11.3 0.00 0.00 0.00 63 1012.6
20260906153018 25 293 6.4 12.9 0.00 0.00 0.00 64 1012.7
20260906150018 24 293 4.8 8.0 0.00 0.00 0.00 61 1012.7
20260906143019 25 293 1.6 6.4 0.00 0.00 0.00 58 1012.4
20260906140018 25 113 3.2 6.4 0.00 0.00 0.00 56 1011.9
20260906133018 24 113 3.2 6.4 0.00 0.00 0.00 54 1011.5
20260906130018 24 113 3.2 6.4 0.00 0.00 0.00 53 1011.5
20260906123018 24 135 4.8 8.0 0.00 0.00 0.00 51 1011.4
20260906120018 25 113 1.6 6.4 0.00 0.00 0.00 51 1011.6
20260906113018 24 293 1.6 4.8 0.00 0.00 0.00 53 1011.6
20260906110038 23 293 3.2 9.7 0.00 0.00 0.00 49 1011.7
20260906103017 24 270 6.4 11.3 0.00 0.00 0.00 48 1012.1
20260906100038 24 270 4.8 9.7 0.00 0.00 0.00 45 1012.0
20260906093037 25 293 4.8 9.7 0.00 0.00 0.00 43 1011.8
20260906090020 25 338 3.2 6.4 0.00 0.00 0.00 41 1012.1
20260906083020 25 293 4.8 9.7 0.00 0.00 0.00 41 1012.4
20260906080019 25 270 1.6 4.8 0.00 0.00 0.00 43 1012.5
20260906073019 26 135 3.2 6.4 0.00 0.00 0.00 41 1012.7
20260906070019 25 135 1.6 6.4 0.00 0.00 0.00 42 1012.6
20260906063019 25 135 4.8 11.3 0.00 0.00 0.00 39 1012.7
20260906060019 25 90 3.2 6.4 0.00 0.00 0.00 39 1012.4
20260906053019 26 270 3.2 6.4 0.00 0.00 0.00 37 1012.6
20260906050039 26 270 4.8 9.7 0.00 0.00 0.00 37 1012.8
20260906043019 26 270 4.8 9.7 0.00 0.00 0.00 41 1012.6
20260906040019 26 293 3.2 9.7 0.00 0.00 0.00 42 1012.4
20260906033039 27 293 3.2 8.0 0.00 0.00 0.00 38 1012.3
20260906030039 27 270 4.8 11.3 0.00 0.00 0.00 31 1011.8
20260906023019 28 270 8.0 14.5 0.00 0.00 0.00 31 1011.7
20260906020018 29 270 8.0 16.1 0.00 0.00 0.00 28 1011.6
20260906013018 31 270 8.0 16.1 0.00 0.00 0.00 30 1011.7
20260906010018 31 248 11.3 19.3 0.00 0.00 0.00 32 1011.8
20260906003018 31 270 12.9 20.9 0.00 0.00 0.00 34 1011.9
20260906000019 31 270 11.3 25.7 0.00 0.00 0.00 37 1011.7
20260905233018 32 248 12.9 24.1 0.00 0.00 0.00 36 1011.9
20260905230018 32 248 11.3 24.1 0.00 0.00 0.00 33 1011.7
20260905223018 32 248 11.3 20.9 0.00 0.00 0.00 37 1012.1
20260905220018 32 248 12.9 24.1 0.00 0.00 0.00 31 1012.4
20260905213038 33 248 12.9 25.7 0.00 0.00 0.00 37 1012.4
20260905210018 33 248 11.3 22.5 0.00 0.00 0.00 38 1012.8
20260905203018 33 270 12.9 22.5 0.00 0.00 0.00 37 1013.1
20260905200018 33 248 11.3 25.7 0.00 0.00 0.00 30 1013.2
20260905193018 32 293 9.7 19.3 0.00 0.00 0.00 26 1013.4
20260905190017 31 293 9.7 20.9 0.00 0.00 0.00 26 1013.7
20260905183018 29 315 11.3 20.9 0.00 0.00 0.00 32 1013.9
20260905180017 28 338 8.0 16.1 0.00 0.00 0.00 34 1014.1
20260905173019 27 315 8.0 14.5 0.00 0.00 0.00 37 1014.0
20260905170019 26 315 6.4 16.1 0.00 0.00 0.00 37 1013.6
20260905163039 26 315 6.4 14.5 0.00 0.00 0.00 40 1013.6